Athens, OH

1:22 PM EDT on May 23, 2017 (GMT -0400)
Ohio University

Weather History for KUNI - March, 2013

Change the Weather History Date:

Thursday, March 28, 2013

  Actual Average (KPKB) Record (KPKB)
Temperature  
Mean Temperature 36 °F -  
Max Temperature 48 °F 61 °F 85 °F (1989)
Min Temperature 23 °F 37 °F 15 °F (1982)
Degree Days  
Heating Degree Days 30    
Moisture  
Dew Point 23 °F    
Average Humidity 60    
Maximum Humidity 87    
Minimum Humidity 37    
Precipitation  
Precipitation 0.00 in - - ()
Sea Level Pressure  
Sea Level Pressure 30.27 in    
Wind  
Wind Speed 6 mph (WNW)    
Max Wind Speed 15 mph    
Max Gust Speed 24 mph    
Visibility 10 miles    
Events      
Averages and records for this station are not official NWS values.
T = Trace of Precipitation, MM = Missing Value Source: NWS Daily Summary

Daily Weather History Graph

Daily Weather History Graph

Search for Another Location

Airport or City:

Trip Planner

Search our weather history database for the weather conditions in past years. The results will help you decide how hot, cold, wet, or windy it might be!

Date:

Astronomy

Mar. 28, 2013 Rise Set
Actual Time 7:19 AM EDT 7:49 PM EDT
Civil Twilight 6:52 AM EDT 8:15 PM EDT
Nautical Twilight 6:20 AM EDT 8:47 PM EDT
Astronomical Twilight 5:48 AM EDT 9:20 PM EDT
Moon 9:38 PM EDT (3/28) 7:47 AM EDT (3/28)
Length of Visible Light 13h 23m
Length of Day
12h 29m
Full, 98% of the Moon is Illuminated
Mar 28
Full
Apr 3
Last Quarter
Apr 10
New
Apr 18
First Quarter
Apr 25
Full

Hourly Weather History & Observations

Time (EDT) Temp. Windchill Dew Point Humidity Pressure Visibility Wind Dir Wind Speed Gust Speed Precip Events Conditions
12:15 AM 34.3 °F 29.2 °F 24.4 °F 67% 30.25 in 10.0 mi West 5.8 mph - N/A   Overcast
12:35 AM 34.7 °F 29.6 °F 23.9 °F 65% 30.25 in 10.0 mi West 5.8 mph - N/A   Overcast
12:55 AM 34.9 °F 29.0 °F 23.5 °F 63% 30.25 in 10.0 mi West 6.9 mph - N/A   Overcast
1:15 AM 34.7 °F 28.8 °F 23.4 °F 63% 30.24 in 10.0 mi West 6.9 mph - N/A   Overcast
1:35 AM 33.6 °F 26.2 °F 23.0 °F 65% 30.24 in 10.0 mi West 9.2 mph - N/A   Scattered Clouds
1:55 AM 32.9 °F 27.5 °F 22.8 °F 66% 30.24 in 10.0 mi West 5.8 mph - N/A   Clear
2:15 AM 32.0 °F 28.7 °F 22.6 °F 68% 30.25 in 10.0 mi West 3.5 mph - N/A   Clear
2:35 AM 31.5 °F 28.1 °F 22.5 °F 69% 30.25 in 10.0 mi WSW 3.5 mph - N/A   Clear
2:55 AM 30.2 °F 26.7 °F 22.1 °F 72% 30.25 in 10.0 mi WSW 3.5 mph - N/A   Clear
3:35 AM 28.6 °F 23.5 °F 22.1 °F 77% 30.24 in 10.0 mi WSW 4.6 mph - N/A   Clear
3:55 AM 27.5 °F 23.6 °F 22.1 °F 80% 30.24 in 10.0 mi WSW 3.5 mph - N/A   Clear
4:15 AM 27.5 °F 23.6 °F 22.3 °F 81% 30.24 in 10.0 mi WSW 3.5 mph - N/A   Clear
4:35 AM 27.0 °F - 22.3 °F 83% 30.24 in 10.0 mi Calm Calm - N/A   Clear
4:55 AM 27.1 °F - 22.3 °F 82% 30.24 in 10.0 mi Calm Calm - N/A   Clear
5:15 AM 26.6 °F - 22.1 °F 83% 30.24 in 10.0 mi Calm Calm - N/A   Clear
5:35 AM 27.0 °F - 22.6 °F 84% 30.24 in 10.0 mi Calm Calm - N/A   Clear
5:55 AM 26.4 °F - 23.0 °F 87% 30.24 in 10.0 mi Calm Calm - N/A   Clear
6:15 AM 26.2 °F 22.1 °F 21.9 °F 84% 30.25 in 10.0 mi SW 3.5 mph - N/A   Clear
6:35 AM 25.7 °F - 21.2 °F 83% 30.25 in 10.0 mi Calm Calm - N/A   Clear
6:55 AM 25.3 °F - 21.6 °F 86% 30.26 in 10.0 mi Calm Calm - N/A   Clear
7:15 AM 23.9 °F 18.0 °F 20.5 °F 87% 30.27 in 10.0 mi West 4.6 mph - N/A   Clear
7:35 AM 26.8 °F - 21.9 °F 82% 30.27 in 10.0 mi Calm Calm - N/A   Clear
7:55 AM 25.9 °F 20.3 °F 21.9 °F 85% 30.27 in 10.0 mi West 4.6 mph - N/A   Clear
8:15 AM 29.1 °F 24.1 °F 23.7 °F 80% 30.28 in 10.0 mi West 4.6 mph - N/A   Clear
8:35 AM 31.8 °F 25.4 °F 24.1 °F 73% 30.29 in 10.0 mi West 6.9 mph - N/A   Clear
8:55 AM 32.7 °F 26.4 °F 24.1 °F 71% 30.29 in 10.0 mi West 6.9 mph - N/A   Clear
9:15 AM 34.2 °F 27.5 °F 23.5 °F 65% 30.29 in 10.0 mi West 8.1 mph - N/A   Clear
9:35 AM 35.6 °F 28.6 °F 23.2 °F 61% 30.30 in 10.0 mi WNW 9.2 mph - N/A   Clear
9:55 AM 36.9 °F 31.4 °F 22.1 °F 55% 30.30 in 10.0 mi NNW 6.9 mph - N/A   Clear
10:15 AM 37.9 °F 32.1 °F 22.3 °F 53% 30.30 in 10.0 mi NW 8.1 mph - N/A   Clear
10:35 AM 39.6 °F 34.7 °F 22.8 °F 51% 30.30 in 10.0 mi WNW 6.9 mph - N/A   Clear
10:55 AM 40.5 °F 34.6 °F 23.2 °F 50% 30.30 in 10.0 mi NW 9.2 mph - N/A   Clear
11:15 AM 41.4 °F 36.8 °F 22.3 °F 47% 30.30 in 10.0 mi NNW 6.9 mph - N/A   Clear
11:35 AM 42.3 °F 35.9 °F 21.7 °F 44% 30.30 in 10.0 mi NW 11.5 mph 17.3 mph N/A   Clear
11:55 AM 43.5 °F 37.9 °F 22.5 °F 43% 30.30 in 10.0 mi NW 10.4 mph 16.1 mph N/A   Clear
12:15 PM 43.7 °F 38.6 °F 21.9 °F 42% 30.29 in 10.0 mi NNW 9.2 mph - N/A   Clear
12:35 PM 44.2 °F 38.0 °F 21.0 °F 40% 30.29 in 10.0 mi WNW 12.7 mph 23.0 mph N/A   Clear
12:55 PM 45.0 °F 38.2 °F 22.3 °F 41% 30.29 in 10.0 mi WNW 15.0 mph 19.6 mph N/A   Scattered Clouds
1:15 PM 46.0 °F 41.0 °F 23.7 °F 42% 30.28 in 10.0 mi NW 10.4 mph - N/A   Scattered Clouds
1:35 PM 47.1 °F - 24.1 °F 40% 30.27 in 10.0 mi West 12.7 mph - N/A   Scattered Clouds
1:55 PM 46.8 °F - 23.5 °F 40% 30.27 in 10.0 mi WNW 11.5 mph 18.4 mph N/A   Mostly Cloudy
2:15 PM 47.5 °F - 22.6 °F 38% 30.27 in 10.0 mi WNW 6.9 mph 17.3 mph N/A   Mostly Cloudy
2:35 PM 46.2 °F 41.2 °F 23.2 °F 40% 30.27 in 10.0 mi WNW 10.4 mph 21.9 mph N/A   Overcast
2:55 PM 47.7 °F - 23.7 °F 39% 30.27 in 10.0 mi NNW 10.4 mph 17.3 mph N/A   Mostly Cloudy
3:15 PM 47.1 °F - 23.9 °F 40% 30.26 in 10.0 mi WNW 15.0 mph 20.7 mph N/A   Mostly Cloudy
3:35 PM 46.8 °F - 22.5 °F 38% 30.26 in 10.0 mi WNW 9.2 mph 17.3 mph N/A   Mostly Cloudy
3:55 PM 47.3 °F - 23.5 °F 39% 30.25 in 10.0 mi NNW 9.2 mph 12.7 mph N/A   Mostly Cloudy
4:15 PM 47.8 °F - 24.1 °F 39% 30.25 in 10.0 mi West 10.4 mph 17.3 mph N/A   Mostly Cloudy
4:35 PM 48.4 °F - 24.3 °F 39% 30.25 in 10.0 mi NNW 9.2 mph 24.2 mph N/A   Mostly Cloudy
4:55 PM 47.3 °F - 23.9 °F 40% 30.25 in 10.0 mi West 15.0 mph 19.6 mph N/A   Mostly Cloudy
5:15 PM 48.4 °F - 23.2 °F 37% 30.25 in 10.0 mi NW 8.1 mph - N/A   Mostly Cloudy
5:35 PM 47.8 °F - 24.1 °F 39% 30.25 in 10.0 mi NW 10.4 mph - N/A   Overcast
5:55 PM 47.3 °F - 25.0 °F 42% 30.25 in 10.0 mi West 12.7 mph - N/A   Overcast
6:15 PM 46.8 °F - 24.4 °F 42% 30.26 in 10.0 mi West 12.7 mph 19.6 mph N/A   Overcast
6:35 PM 46.6 °F - 25.0 °F 43% 30.26 in 10.0 mi West 10.4 mph - N/A   Overcast
6:55 PM 46.4 °F 42.9 °F 24.1 °F 42% 30.26 in 10.0 mi NW 6.9 mph - N/A   Overcast
7:15 PM 45.9 °F 40.8 °F 23.9 °F 42% 30.26 in 10.0 mi WNW 10.4 mph - N/A   Mostly Cloudy
7:35 PM 45.0 °F 40.6 °F 24.1 °F 44% 30.27 in 10.0 mi WNW 8.1 mph - N/A   Mostly Cloudy
7:55 PM 44.1 °F 41.5 °F 24.3 °F 46% 30.27 in 10.0 mi WNW 4.6 mph - N/A   Mostly Cloudy
8:15 PM 41.2 °F - 24.4 °F 51% 30.27 in 10.0 mi Calm Calm - N/A   Scattered Clouds
8:35 PM 39.2 °F 37.0 °F 24.6 °F 56% 30.28 in 10.0 mi West 3.5 mph - N/A   Scattered Clouds
8:55 PM 38.3 °F - 25.2 °F 59% 30.28 in 10.0 mi Calm Calm - N/A   Clear
9:15 PM 36.5 °F - 25.7 °F 65% 30.29 in 10.0 mi Calm Calm - N/A   Scattered Clouds
9:35 PM 35.1 °F - 25.7 °F 69% 30.29 in 10.0 mi Calm Calm - N/A   Scattered Clouds
9:55 PM 34.7 °F - 25.5 °F 69% 30.29 in 10.0 mi Calm Calm - N/A   Scattered Clouds
10:15 PM 33.3 °F - 26.1 °F 75% 30.30 in 10.0 mi Calm Calm - N/A   Clear
10:35 PM 32.4 °F - 25.9 °F 77% 30.30 in 10.0 mi Calm Calm - N/A   Clear
10:55 PM 32.4 °F - 25.7 °F 76% 30.30 in 10.0 mi Calm Calm - N/A   Clear
11:15 PM 31.1 °F - 25.7 °F 80% 30.30 in 10.0 mi Calm Calm - N/A   Clear
11:35 PM 31.1 °F - 25.5 °F 80% 30.30 in 10.0 mi Calm Calm - N/A   Clear
11:55 PM 30.7 °F - 25.3 °F 80% 30.31 in 10.0 mi Calm Calm - N/A   Clear